SAS4467 ENVA-ENZV

Flight info

Callsign SAS4467
Flight time N/A
Altitude 34000
Route GOGOX DCT PIGED DCT ROPNO
Aircraft A320/M-SDE3FGHIRWY/LB1

Departure

Time 2026-05-06 18:47
Airport Trondheim Airport, Værnes (ENVA)

Arrival

Time N/A
Airport Stavanger Airport, Sola (ENZV)
Time Latitude Longitude Altitude Speed Heading
2026-05-06 18:16 63.45469 10.92263 44 ft 0 kts 270°
2026-05-06 18:38 63.45469 10.92279 44 ft 4 kts 270°
2026-05-06 18:38 63.45468 10.92338 45 ft 4 kts 270°
2026-05-06 18:38 63.45473 10.92391 46 ft 4 kts 254°
2026-05-06 18:38 63.45477 10.92434 46 ft 4 kts 274°
2026-05-06 18:39 63.45473 10.92462 45 ft 0 kts 326°
2026-05-06 18:42 63.45475 10.92460 45 ft 2 kts 326°
2026-05-06 18:42 63.45494 10.92433 46 ft 5 kts 334°
2026-05-06 18:42 63.45538 10.92419 46 ft 6 kts 359°
2026-05-06 18:42 63.45579 10.92432 46 ft 7 kts 27°
2026-05-06 18:43 63.45596 10.92532 46 ft 6 kts 88°
2026-05-06 18:43 63.45596 10.92597 47 ft 2 kts 90°
2026-05-06 18:43 63.45596 10.92610 47 ft 2 kts 90°
2026-05-06 18:43 63.45594 10.92755 46 ft 11 kts 91°
2026-05-06 18:44 63.45594 10.92949 49 ft 13 kts 90°
2026-05-06 18:44 63.45592 10.93152 50 ft 12 kts 91°
2026-05-06 18:44 63.45592 10.93316 54 ft 9 kts 90°
2026-05-06 18:44 63.45592 10.93418 56 ft 6 kts 90°
2026-05-06 18:45 63.45592 10.93564 55 ft 11 kts 90°
2026-05-06 18:45 63.45592 10.93739 61 ft 10 kts 90°
2026-05-06 18:45 63.45614 10.93877 54 ft 8 kts 54°
2026-05-06 18:45 63.45655 10.93967 55 ft 8 kts 43°
2026-05-06 18:46 63.45693 10.94047 58 ft 7 kts 43°
2026-05-06 18:46 63.45736 10.94092 61 ft 7 kts 356°
2026-05-06 18:46 63.45758 10.94027 57 ft 6 kts 272°
2026-05-06 18:46 63.45758 10.93997 63 ft 0 kts 270°
2026-05-06 18:47 63.45756 10.93518 56 ft 70 kts 270°
2026-05-06 18:47 63.45758 10.91947 42 ft 131 kts 270°
2026-05-06 18:47 63.45887 10.89071 559 ft 153 kts 281°
2026-05-06 18:47 63.46046 10.86780 1274 ft 152 kts 272°
2026-05-06 18:48 63.46057 10.84366 2020 ft 155 kts 268°
2026-05-06 18:48 63.45992 10.81936 2675 ft 158 kts 266°
2026-05-06 18:48 63.45962 10.81138 2854 ft 160 kts 265°
2026-05-06 18:48 63.45779 10.77391 3603 ft 172 kts 263°
2026-05-06 18:49 63.45571 10.74742 4116 ft 180 kts 255°
2026-05-06 18:49 63.45030 10.72072 4519 ft 196 kts 237°
2026-05-06 18:49 63.44084 10.69754 4960 ft 209 kts 222°
2026-05-06 18:49 63.42848 10.67733 5343 ft 232 kts 216°
2026-05-06 18:50 63.41427 10.65710 5811 ft 253 kts 214°
2026-05-06 18:50 63.39911 10.63575 6568 ft 260 kts 214°
2026-05-06 18:50 63.38373 10.61388 7423 ft 264 kts 214°
2026-05-06 18:50 63.36823 10.59168 8293 ft 266 kts 214°
2026-05-06 18:51 63.35260 10.56914 9177 ft 269 kts 214°
2026-05-06 18:51 63.33678 10.54623 9967 ft 274 kts 214°
2026-05-06 18:51 63.32045 10.52253 10444 ft 291 kts 214°
2026-05-06 18:51 63.30279 10.49692 10702 ft 313 kts 214°
2026-05-06 18:52 63.28143 10.46600 11382 ft 323 kts 213°
2026-05-06 18:52 63.26249 10.43864 12129 ft 327 kts 213°
2026-05-06 18:52 63.24329 10.41099 12920 ft 330 kts 213°
2026-05-06 18:52 63.22396 10.38323 13673 ft 333 kts 213°
2026-05-06 18:53 63.20446 10.35522 14353 ft 335 kts 213°
2026-05-06 18:53 63.18479 10.32706 15011 ft 339 kts 213°
2026-05-06 18:53 63.16490 10.29864 15661 ft 342 kts 213°
2026-05-06 18:53 63.14479 10.26996 16320 ft 345 kts 213°
2026-05-06 18:54 63.13138 10.25083 16734 ft 348 kts 213°
2026-05-06 18:54 63.10874 10.21864 17442 ft 351 kts 213°
2026-05-06 18:54 63.08838 10.18963 18060 ft 352 kts 213°